Weather History for Big Sandy Reg AP, Prestonsbur, KY

Change the Weather History Date:

Wednesday, December 11, 2013

  Actual Average Record
Temperature  
Mean Temperature 32 °F -  
Max Temperature 43 °F - - ()
Min Temperature 22 °F - - ()
Degree Days  
Heating Degree Days 32    
Moisture  
Dew Point 21 °F    
Average Humidity 64    
Maximum Humidity 89    
Minimum Humidity 40    
Precipitation  
Precipitation 0.00 in - - ()
Sea Level Pressure  
Sea Level Pressure 30.35 in    
Wind  
Wind Speed 3 mph (WSW)    
Max Wind Speed 12 mph    
Max Gust Speed 23 mph    
Visibility 10 miles    
Events      
T = Trace of Precipitation, MM = Missing Value Source: NWS Daily Summary

Daily Weather History Graph

Daily Weather History Graph

Search for Another Location

Airport:

Trip Planner

Search our weather history database for the weather conditions in past years. The results will help you decide how hot, cold, wet, or windy it might be!

Date:

Astronomy

Dec. 11, 2013 Rise Set
Actual Time 7:35 AM EST 5:11 PM EST
Civil Twilight 7:06 AM EST 5:41 PM EST
Nautical Twilight 6:33 AM EST 6:14 PM EST
Astronomical Twilight 6:01 AM EST 6:45 PM EST
Moon 1:40 PM EST 2:00 AM EST
Length of Visible Light 10h 34m
Length of Day
9h 36m
Waxing Gibbous, 71% of the Moon is Illuminated
Dec 11
Waxing Gibbous
Dec 17
Full
Dec 25
Last Quarter
Jan 1
New
Jan 7
First Quarter

Hourly Weather History & Observations

Time (EST) Temp. Windchill Dew Point Humidity Pressure Visibility Wind Dir Wind Speed Gust Speed Precip Events Conditions
12:15 AM 28.2 °F - 17.8 °F 65% 30.34 in 10.0 mi Calm Calm - N/A   Clear
12:35 AM 28.0 °F 24.2 °F 18.0 °F 66% 30.34 in 10.0 mi West 3.5 mph - N/A   Clear
12:55 AM 27.9 °F - 18.0 °F 66% 30.36 in 10.0 mi Calm Calm - N/A   Clear
1:15 AM 27.9 °F - 18.1 °F 67% 30.36 in 10.0 mi Calm Calm - N/A   Clear
1:35 AM 26.8 °F - 18.1 °F 70% 30.36 in 10.0 mi Calm Calm - N/A   Clear
1:55 AM 26.2 °F - 18.0 °F 71% 30.37 in 10.0 mi Calm Calm - N/A   Clear
2:15 AM 27.0 °F - 18.1 °F 69% 30.37 in 10.0 mi Calm Calm - N/A   Clear
2:35 AM 24.8 °F - 18.3 °F 76% 30.38 in 10.0 mi Calm Calm - N/A   Clear
2:55 AM 24.8 °F - 18.9 °F 78% 30.39 in 10.0 mi Calm Calm - N/A   Clear
3:15 AM 25.2 °F - 18.3 °F 75% 30.39 in 10.0 mi Calm Calm - N/A   Clear
3:35 AM 24.6 °F - 18.3 °F 77% 30.39 in 10.0 mi Calm Calm - N/A   Clear
3:55 AM 26.2 °F - 18.1 °F 71% 30.39 in 10.0 mi Calm Calm - N/A   Clear
4:15 AM 23.5 °F - 20.1 °F 87% 30.39 in 10.0 mi Calm Calm - N/A   Clear
4:35 AM 23.5 °F - 19.4 °F 84% 30.39 in 10.0 mi Calm Calm - N/A   Clear
4:55 AM 22.6 °F 18.0 °F 19.9 °F 89% 30.39 in 10.0 mi South 3.5 mph - N/A   Clear
5:15 AM 23.9 °F - 19.4 °F 83% 30.39 in 10.0 mi Calm Calm - N/A   Clear
5:35 AM 24.6 °F 20.3 °F 19.0 °F 79% 30.39 in 10.0 mi SSW 3.5 mph - N/A   Clear
5:55 AM 23.9 °F 19.5 °F 19.0 °F 82% 30.38 in 10.0 mi South 3.5 mph - N/A   Clear
6:15 AM 23.7 °F - 19.4 °F 84% 30.39 in 10.0 mi Calm Calm - N/A   Clear
6:35 AM 23.5 °F - 19.2 °F 84% 30.38 in 10.0 mi Calm Calm - N/A   Clear
6:55 AM 23.0 °F - 19.0 °F 85% 30.39 in 10.0 mi Calm Calm - N/A   Clear
7:15 AM 22.8 °F - 19.0 °F 85% 30.38 in 10.0 mi Calm Calm - N/A   Clear
7:35 AM 23.7 °F - 19.2 °F 83% 30.38 in 10.0 mi Calm Calm - N/A   Clear
7:55 AM 23.2 °F - 19.0 °F 84% 30.38 in 10.0 mi Calm Calm - N/A   Clear
8:15 AM 23.7 °F 19.3 °F 19.4 °F 84% 30.38 in 10.0 mi SSW 3.5 mph - N/A   Clear
8:35 AM 25.5 °F 18.7 °F 20.1 °F 80% 30.38 in 10.0 mi SSW 5.8 mph - N/A   Clear
8:55 AM 26.6 °F 18.2 °F 20.5 °F 78% 30.38 in 10.0 mi SSW 8.1 mph - N/A   Clear
9:15 AM 27.7 °F 20.4 °F 21.0 °F 76% 30.39 in 10.0 mi SSW 6.9 mph - N/A   Clear
9:35 AM 28.4 °F 21.2 °F 20.8 °F 73% 30.39 in 10.0 mi SSW 6.9 mph - N/A   Clear
9:55 AM 29.3 °F 24.3 °F 21.4 °F 72% 30.39 in 10.0 mi SW 4.6 mph - N/A   Clear
10:15 AM 30.2 °F 23.4 °F 21.6 °F 70% 30.39 in 10.0 mi SW 6.9 mph - N/A   Clear
10:35 AM 31.5 °F 25.8 °F 21.9 °F 68% 30.39 in 10.0 mi SW 5.8 mph - N/A   Clear
10:55 AM 32.2 °F 26.7 °F 22.8 °F 68% 30.38 in 10.0 mi SW 5.8 mph - N/A   Clear
11:15 AM 33.3 °F 27.9 °F 22.6 °F 65% 30.38 in 10.0 mi SW 5.8 mph - N/A   Clear
11:35 AM 34.7 °F 28.1 °F 23.2 °F 63% 30.36 in 10.0 mi South 8.1 mph - N/A   Clear
11:55 AM 35.2 °F 29.5 °F 23.4 °F 62% 30.35 in 10.0 mi SSW 6.9 mph - N/A   Clear
12:15 PM 36.3 °F 31.6 °F 23.4 °F 59% 30.34 in 10.0 mi SW 5.8 mph - N/A   Clear
12:35 PM 37.2 °F 33.6 °F 23.7 °F 58% 30.33 in 10.0 mi WSW 4.6 mph - N/A   Clear
12:55 PM 38.1 °F 33.7 °F 24.3 °F 57% 30.32 in 10.0 mi SW 5.8 mph - N/A   Clear
1:15 PM 39.4 °F 34.5 °F 24.1 °F 54% 30.31 in 10.0 mi West 6.9 mph - N/A   Clear
1:35 PM 40.6 °F 38.6 °F 25.0 °F 54% 30.30 in 10.0 mi SSW 3.5 mph - N/A   Clear
1:55 PM 41.7 °F 38.0 °F 23.9 °F 49% 30.29 in 10.0 mi SW 5.8 mph - N/A   Clear
2:15 PM 42.4 °F 38.1 °F 22.1 °F 44% 30.28 in 10.0 mi WSW 6.9 mph - N/A   Clear
2:35 PM 43.3 °F 38.6 °F 22.5 °F 44% 30.28 in 10.0 mi West 8.1 mph - N/A   Clear
2:55 PM 43.3 °F 39.9 °F 21.0 °F 41% 30.28 in 10.0 mi West 5.8 mph - N/A   Clear
3:15 PM 43.7 °F 39.7 °F 21.9 °F 42% 30.28 in 10.0 mi West 6.9 mph - N/A   Clear
3:35 PM 43.2 °F 37.4 °F 20.5 °F 40% 30.28 in 10.0 mi West 10.4 mph 17.3 mph N/A   Clear
3:55 PM 43.0 °F 39.5 °F 21.2 °F 42% 30.28 in 10.0 mi West 5.8 mph - N/A   Clear
4:10 PM 42.8 °F 38.0 °F 20.5 °F 41% 30.28 in 10.0 mi West 8.1 mph - N/A   Clear
4:35 PM 42.1 °F 36.1 °F 19.4 °F 40% 30.28 in 10.0 mi West 10.4 mph 16.1 mph N/A   Clear
4:55 PM 41.0 °F 39.0 °F 19.9 °F 43% 30.28 in 10.0 mi West 3.5 mph - N/A   Clear
5:15 PM 40.1 °F 36.1 °F 20.1 °F 45% 30.29 in 10.0 mi West 5.8 mph - N/A   Clear
5:35 PM 39.6 °F 36.3 °F 19.9 °F 45% 30.30 in 10.0 mi West 4.6 mph - N/A   Clear
5:55 PM 39.0 °F 34.0 °F 19.9 °F 46% 30.30 in 10.0 mi West 6.9 mph - N/A   Clear
6:15 PM 38.8 °F 33.2 °F 19.4 °F 46% 30.30 in 10.0 mi West 8.1 mph - N/A   Clear
6:35 PM 38.8 °F 34.6 °F 19.2 °F 45% 30.31 in 10.0 mi West 5.8 mph 16.1 mph N/A   Clear
6:55 PM 37.9 °F 32.7 °F 19.8 °F 48% 30.31 in 10.0 mi WNW 6.9 mph - N/A   Clear
7:15 PM 37.2 °F 30.6 °F 20.1 °F 50% 30.33 in 10.0 mi WNW 9.2 mph - N/A   Clear
7:35 PM 36.9 °F 29.6 °F 20.1 °F 51% 30.33 in 10.0 mi West 10.4 mph - N/A   Clear
7:55 PM 36.5 °F 31.0 °F 20.3 °F 52% 30.34 in 10.0 mi WNW 6.9 mph - N/A   Clear
8:15 PM 36.0 °F 29.6 °F 20.7 °F 54% 30.34 in 10.0 mi WNW 8.1 mph - N/A   Clear
8:35 PM 35.6 °F 28.6 °F 21.0 °F 55% 30.35 in 10.0 mi WNW 9.2 mph - N/A   Clear
8:55 PM 35.1 °F 29.3 °F 21.2 °F 57% 30.35 in 10.0 mi WNW 6.9 mph 17.3 mph N/A   Clear
9:15 PM 34.3 °F 28.4 °F 21.6 °F 60% 30.36 in 10.0 mi NW 6.9 mph - N/A   Clear
9:35 PM 33.8 °F 28.6 °F 21.9 °F 62% 30.36 in 10.0 mi WNW 5.8 mph 16.1 mph N/A   Clear
9:55 PM 32.7 °F 26.4 °F 22.1 °F 65% 30.37 in 10.0 mi NW 6.9 mph - N/A   Clear
10:15 PM 32.4 °F 27.9 °F 22.5 °F 67% 30.38 in 10.0 mi NW 4.6 mph - N/A   Scattered Clouds
10:35 PM 32.4 °F 23.5 °F 22.8 °F 68% 30.39 in 10.0 mi WNW 11.5 mph 23.0 mph N/A   Mostly Cloudy
11:00 PM 32.0 °F 25.6 °F 22.8 °F 69% 30.40 in 10.0 mi NW 6.9 mph - N/A   Overcast
11:15 PM 32.0 °F 24.2 °F 22.6 °F 68% 30.40 in 10.0 mi NNW 9.2 mph - N/A   Overcast
11:35 PM 31.6 °F 25.1 °F 21.7 °F 67% 30.41 in 10.0 mi NW 6.9 mph - N/A   Overcast
11:55 PM 31.6 °F 24.4 °F 21.2 °F 65% 30.41 in 10.0 mi NW 8.1 mph - N/A   Overcast